GFSNIL_prec_cthk_132.txt.gz
RH
59 57 55 53 53 52 58 55 54 59 59 54 52 57 59 59 58 61 63 61 59 58
65 60 61 64 64 68 67 57 56 63 63 55 58 61 64 61 60 60 65 64 59 59
70 72 73 77 74 75 69 62 63 62 65 65 63 64 64 64 62 63 68 68 61 59
80 81 85 86 85 79 71 67 64 66 74 66 65 64 63 64 64 64 70 66 62 62
83 76 80 89 84 87 80 75 75 78 74 67 66 65 65 65 65 65 66 63 63 57
89 84 86 85 88 88 82 76 75 82 84 71 67 66 66 66 64 63 65 70 65 59
91 88 94 91 89 81 75 76 78 80 85 80 70 67 67 69 70 70 69 70 63 58
71 71 74 73 68 71 72 72 74 81 89 91 80 78 69 73 72 70 70 67 61 60
71 63 59 59 62 58 64 66 74 79 79 82 97 87 80 72 70 70 66 64 64 65
69 71 68 67 62 61 63 68 69 79 85 92 87 79 79 80 72 70 67 65 67 66
61 63 70 70 72 69 67 70 77 87 88 86 85 78 77 75 74 72 68 69 69 70
43 54 63 66 68 69 67 70 81 83 85 88 81 71 74 75 75 73 72 72 70 72
43 41 42 50 60 65 67 71 69 73 84 94 87 78 78 78 74 78 76 72 73 76
39 39 41 42 43 46 54 58 65 68 71 71 73 74 80 93 82 80 75 75 76 79

GFSNIL_prec_cthk_135.txt.gz
RH
42 54 51 49 49 47 46 47 53 54 55 57 56 56 55 59 58 56 57 58 58 59
37 49 53 56 53 52 52 52 54 60 58 60 59 62 61 58 60 62 61 62 62 64
42 50 50 59 61 60 59 54 57 69 68 64 63 63 66 61 62 64 65 66 63 64
62 68 62 67 72 71 67 68 67 75 72 68 66 63 65 66 63 66 69 66 64 63
73 88 88 85 80 82 83 75 83 88 85 72 66 67 69 66 66 66 66 66 65 65
71 91 91 93 92 82 79 77 81 86 82 84 80 75 69 70 66 65 67 67 67 66
83 92 95 92 88 86 82 78 78 91 92 95 94 88 76 69 70 71 66 65 66 62
95 95 93 90 91 86 85 90 95 94 92 93 96 91 89 79 74 74 69 69 68 66
92 94 94 91 90 85 82 83 87 91 90 90 91 94 94 93 90 76 75 70 68 65
80 77 74 74 76 77 80 86 84 83 87 89 92 92 98 97 92 81 76 70 67 66
74 74 78 80 77 71 66 70 77 76 80 86 83 97 89 88 84 81 80 79 76 69
58 63 68 70 74 77 77 85 87 80 84 76 85 89 87 88 88 82 76 75 73 70
54 50 48 54 65 68 74 70 70 78 77 80 77 81 87 85 79 74 71 70 71 75
55 52 49 49 46 51 60 68 69 70 72 83 85 86 86 88 85 70 74 75 73 73

GFSNIL_prec_cthk_138.txt.gz
RH
41 58 63 67 57 62 66 60 55 57 56 54 50 52 51 55 54 53 54 55 55 57
41 52 49 56 54 57 62 65 54 58 56 59 57 56 56 61 63 62 54 55 58 59
43 50 58 63 64 65 61 57 58 57 54 59 64 62 61 64 69 64 64 60 61 59
53 50 52 55 60 62 59 63 56 62 63 63 71 73 67 69 73 70 64 63 63 63
46 57 59 53 53 62 66 67 63 67 68 71 77 73 76 82 81 81 67 66 67 67
59 58 55 53 54 58 65 70 72 75 78 76 75 76 82 88 89 84 74 75 73 73
59 59 67 70 74 68 70 73 74 77 81 79 79 78 82 83 93 88 77 75 74 75
75 74 79 89 89 94 90 86 81 81 81 83 80 80 80 91 94 90 81 78 76 75
86 90 94 88 87 92 93 91 88 85 84 83 86 86 84 81 96 95 91 88 82 78
84 96 90 95 95 91 93 97 95 92 93 94 90 89 91 96 94 97 97 95 91 87
96 91 94 98 96 90 92 95 92 90 91 94 93 98 96 99 98 99 97 96 88 82
82 93 98 87 82 80 82 86 89 92 86 98 86 92 97 98 93 95 89 88 84 83
61 60 67 78 84 85 87 80 74 70 72 70 78 76 88 86 98 94 88 90 87 82
65 61 59 56 58 68 73 79 89 85 80 80 88 92 77 79 83 85 90 84 80 78

GFSNIL_prec_cthk_141.txt.gz
RH
47 28 55 42 66 79 85 69 78 62 65 62 54 50 49 49 52 51 51 48 51 54
46 35 51 40 55 76 73 77 76 61 72 71 64 60 57 54 55 55 56 56 55 56
34 40 51 37 49 72 59 43 64 71 82 77 70 69 68 64 62 61 60 61 66 68
36 54 51 59 75 73 94 88 88 81 82 74 71 72 71 71 71 71 68 66 69 74
55 67 63 64 71 86 93 94 65 67 74 68 71 69 65 65 72 80 71 65 71 74
71 70 79 77 79 86 78 62 67 76 68 59 66 67 65 67 69 71 70 71 76 82
67 74 79 74 76 77 73 87 90 79 69 63 66 68 69 72 75 75 71 71 76 77
68 68 65 68 72 73 81 79 72 73 73 75 79 75 73 76 78 77 74 75 76 81
68 68 65 66 64 67 68 69 72 71 74 77 72 74 74 79 80 80 83 82 84 86
66 62 65 67 68 72 71 75 88 79 75 72 75 75 76 82 87 91 91 88 83 83
86 76 68 70 74 90 83 86 92 94 98 93 90 87 87 92 94 95 96 97 94 94
93 98 92 88 98 98 99 95 97 94 98 98 94 89 94 96 94 98 98 97 97 97
80 81 83 96 97 93 89 92 97 99 95 97 99 97 90 97 99 96 92 93 95 98
73 69 68 73 75 92 99 98 98 92 93 87 93 98 97 87 98 98 95 95 99 96

GFSNIL_prec_cthk_144.txt.gz
RH
54 62 58 54 40 29 57 26 45 93 94 79 72 69 57 49 40 36 38 39 39 43
62 62 67 54 48 34 82 50 51 59 98 98 80 77 66 58 47 41 42 44 46 46
66 59 58 59 52 40 61 97 63 61 93 93 95 83 68 69 59 50 47 49 52 52
76 65 58 50 42 48 68 95 65 54 75 92 87 83 85 78 68 57 54 54 55 55
66 67 58 47 41 60 85 78 70 62 65 84 87 83 80 84 72 61 61 59 61 57
81 72 74 73 92 84 86 86 70 67 79 76 75 81 83 87 77 74 73 71 70 62
97 97 98 94 94 91 81 62 59 64 72 77 77 88 82 84 82 80 71 69 68 66
86 90 91 91 93 97 92 73 97 83 87 93 95 88 85 77 79 83 79 76 75 72
77 75 78 80 89 88 89 87 85 98 97 99 99 95 86 78 80 77 76 79 76 75
66 70 69 68 67 74 77 78 79 81 90 93 91 91 91 88 83 77 77 79 89 83
66 67 63 62 58 57 67 66 66 69 74 82 82 79 83 83 78 78 86 83 82 84
79 85 80 82 77 69 64 65 66 70 71 71 69 75 73 68 78 86 83 80 83 91
83 83 84 86 97 87 78 70 77 93 82 76 80 81 85 88 99 95 95 94 97 96
83 81 81 78 78 83 88 89 98 96 97 94 93 95 93 91 95 98 97 98 96 93